EW8865 Weather Reports


time (UTC)temp
C
wind
direction
speed
KPH
gust
KPH
rain 1hr
cm
rain 24hr
cm
rain mn
cm
humidity
%
barometer
mb
20260904232503 12 266 3.2 4.8 0.00 0.43 0.00 87 1019.2
20260904232003 12 265 3.2 9.7 0.00 0.43 0.00 87 1019.3
20260904231504 12 263 4.8 9.7 0.00 0.46 0.00 87 1019.3
20260904231004 12 244 3.2 11.3 0.00 0.46 0.00 87 1019.2
20260904230504 12 258 4.8 9.7 0.00 0.51 0.00 86 1019.1
20260904230003 12 269 6.4 11.3 0.00 0.51 0.00 86 1019.1
20260904225504 12 253 4.8 11.3 0.00 0.51 0.51 86 1019.1
20260904223503 13 246 4.8 8.0 0.00 0.51 0.51 85 1019.1
20260904223003 13 253 3.2 4.8 0.00 0.51 0.51 85 1019.0
20260904222503 13 247 4.8 12.9 0.00 0.51 0.51 85 1019.0
20260904222004 13 247 4.8 8.0 0.00 0.51 0.51 85 1018.9
20260904221504 13 273 4.8 12.9 0.00 0.51 0.51 85 1018.9
20260904220503 13 253 4.8 11.3 0.00 0.51 0.51 85 1018.9
20260904220003 13 250 4.8 11.3 0.00 0.51 0.51 85 1019.0
20260904215504 13 241 4.8 11.3 0.00 0.51 0.51 85 1019.0
20260904215003 13 253 8.0 12.9 0.00 0.53 0.51 85 1018.8
20260904214004 13 265 8.0 12.9 0.00 0.53 0.51 86 1018.7
20260904213504 13 266 8.0 12.9 0.00 0.53 0.51 86 1018.6
20260904213003 13 269 9.7 16.1 0.00 0.53 0.51 86 1018.5
20260904212504 13 251 9.7 14.5 0.00 0.53 0.51 87 1018.5
20260904212004 13 266 9.7 14.5 0.00 0.53 0.51 87 1018.5
20260904211003 13 269 6.4 12.9 0.00 0.53 0.51 87 1018.4
20260904210503 13 265 4.8 9.7 0.00 0.53 0.51 87 1018.4
20260904210004 13 260 8.0 14.5 0.00 0.56 0.51 87 1018.4
20260904205503 13 241 6.4 12.9 0.00 0.56 0.51 87 1018.4
20260904205004 13 249 6.4 11.3 0.00 0.61 0.51 87 1018.3
20260904204504 13 246 4.8 8.0 0.00 0.61 0.51 87 1018.2
20260904203504 13 265 4.8 11.3 0.00 0.61 0.51 86 1018.2
20260904203004 13 265 8.0 11.3 0.00 0.61 0.51 86 1018.2
20260904202503 13 262 4.8 11.3 0.00 0.61 0.51 85 1018.2
20260904201503 13 262 4.8 9.7 0.00 0.61 0.51 84 1018.2
20260904201003 13 260 6.4 9.7 0.00 0.61 0.51 84 1018.2
20260904200504 13 269 4.8 11.3 0.00 0.61 0.51 83 1018.2
20260904200004 14 264 4.8 4.8 0.00 0.61 0.51 83 1018.1
20260904195503 14 259 3.2 8.0 0.00 0.61 0.51 82 1018.1
20260904195004 14 253 4.8 9.7 0.00 0.61 0.51 82 1018.0
20260904194503 14 270 6.4 11.3 0.00 0.61 0.51 82 1018.0
20260904193504 15 252 4.8 12.9 0.00 0.61 0.51 81 1017.8
20260904193004 15 260 8.0 16.1 0.00 0.61 0.51 81 1017.8
20260904192504 15 261 9.7 14.5 0.00 0.61 0.51 81 1017.8
20260904192003 15 279 8.0 16.1 0.00 0.61 0.51 80 1017.8
20260904191504 15 273 11.3 19.3 0.00 0.61 0.51 80 1017.8
20260904191004 15 269 11.3 19.3 0.00 0.61 0.51 80 1017.7
20260904190504 15 288 11.3 19.3 0.00 0.61 0.51 79 1017.6
20260904190004 15 282 9.7 16.1 0.00 0.61 0.51 79 1017.6
20260904185503 15 270 9.7 22.5 0.00 0.61 0.51 79 1017.5
20260904185003 15 272 9.7 20.9 0.00 0.61 0.51 78 1017.5
20260904184504 15 270 14.5 19.3 0.00 0.61 0.51 78 1017.6
20260904184004 16 267 14.5 20.9 0.00 0.61 0.51 78 1017.5
20260904183003 16 259 11.3 19.3 0.00 0.61 0.51 77 1017.5
20260904182503 16 280 8.0 16.1 0.00 0.61 0.51 77 1017.5
20260904182003 16 287 9.7 20.9 0.00 0.61 0.51 77 1017.5
20260904181004 16 267 11.3 19.3 0.00 0.61 0.51 76 1017.3
20260904180004 16 262 12.9 27.4 0.00 0.61 0.51 75 1017.1
20260904175503 16 291 9.7 24.1 0.00 0.61 0.51 75 1017.1
20260904175004 16 268 14.5 25.7 0.00 0.61 0.51 75 1017.1
20260904174504 17 257 16.1 27.4 0.00 0.61 0.51 75 1017.1
20260904173504 17 274 11.3 19.3 0.00 0.61 0.51 74 1017.0
20260904172504 17 289 14.5 25.7 0.00 0.64 0.51 74 1017.1
20260904172004 17 269 11.3 20.9 0.00 0.64 0.51 75 1017.0
20260904171503 17 275 11.3 19.3 0.00 0.64 0.51 75 1017.0
20260904170003 16 281 14.5 24.1 0.00 0.64 0.51 75 1016.8
20260904165503 16 258 9.7 19.3 0.00 0.64 0.51 75 1016.8
20260904165004 16 286 11.3 22.5 0.00 0.64 0.51 75 1016.8
20260904164004 16 250 9.7 16.1 0.00 0.64 0.51 75 1016.6
20260904163503 16 261 16.1 22.5 0.00 0.64 0.51 74 1016.5
20260904162503 16 277 14.5 20.9 0.00 0.66 0.51 72 1016.4
20260904162004 17 273 16.1 25.7 0.00 0.66 0.51 72 1016.5
20260904161504 17 274 16.1 29.0 0.00 0.66 0.51 72 1016.4
20260904161003 17 284 12.9 27.4 0.00 0.66 0.51 72 1016.3
20260904160504 17 295 16.1 27.4 0.00 0.66 0.51 72 1016.2
20260904160003 17 285 14.5 22.5 0.00 0.66 0.51 72 1016.3
20260904155504 17 280 12.9 22.5 0.00 0.66 0.51 73 1016.3
20260904155004 17 260 14.5 32.2 0.00 0.66 0.51 72 1016.2
20260904154503 17 283 19.3 29.0 0.00 0.66 0.51 71 1016.2
20260904154004 17 271 17.7 25.7 0.00 0.66 0.51 71 1016.3
20260904153503 17 262 14.5 22.5 0.00 0.66 0.51 70 1016.3
20260904153004 17 271 14.5 20.9 0.00 0.66 0.51 70 1016.3
20260904152004 17 266 16.1 29.0 0.00 0.66 0.51 71 1016.1
20260904151003 17 257 9.7 19.3 0.00 0.66 0.51 72 1016.1
20260904150504 17 275 16.1 22.5 0.00 0.66 0.51 71 1016.0
20260904145504 18 247 14.5 29.0 0.00 0.66 0.51 70 1016.1
20260904145003 18 281 14.5 27.4 0.00 0.66 0.51 70 1015.9
20260904144504 18 272 19.3 27.4 0.00 0.66 0.51 70 1015.8
20260904144004 18 259 16.1 25.7 0.00 0.66 0.51 70 1015.8
20260904143003 18 262 16.1 32.2 0.00 0.66 0.51 70 1015.8
20260904142504 18 245 17.7 29.0 0.00 0.66 0.51 70 1015.8
20260904142004 18 277 12.9 29.0 0.00 0.66 0.51 70 1015.7
20260904141004 18 278 16.1 32.2 0.00 0.66 0.51 68 1015.4
20260904140503 18 280 19.3 32.2 0.00 0.66 0.51 69 1015.4
20260904140004 18 245 16.1 27.4 0.00 0.66 0.51 68 1015.5
20260904135503 18 257 16.1 27.4 0.00 0.66 0.51 69 1015.4
20260904135003 18 267 19.3 32.2 0.00 0.66 0.51 69 1015.3
20260904134504 18 286 14.5 22.5 0.00 0.66 0.51 69 1015.3
20260904134004 18 253 16.1 29.0 0.00 0.66 0.51 70 1015.3
20260904133503 18 276 16.1 29.0 0.00 0.66 0.51 70 1015.3
20260904133004 18 266 19.3 29.0 0.00 0.66 0.51 70 1015.3
20260904132503 18 260 17.7 25.7 0.00 0.66 0.51 71 1015.2
20260904132003 18 275 16.1 25.7 0.00 0.66 0.51 71 1015.0
20260904131504 18 257 19.3 27.4 0.00 0.66 0.51 71 1015.1
20260904131003 18 269 16.1 27.4 0.00 0.66 0.51 71 1015.1
20260904130504 18 268 14.5 29.0 0.00 0.66 0.51 69 1015.2
20260904130004 18 276 17.7 24.1 0.00 0.66 0.51 69 1015.2
20260904125504 17 268 16.1 29.0 0.00 0.66 0.51 71 1015.1
20260904125004 17 265 20.9 29.0 0.00 0.66 0.51 70 1015.2
20260904123004 17 250 14.5 25.7 0.00 0.66 0.51 71 1015.0
20260904122504 17 265 11.3 25.7 0.00 0.66 0.51 71 1015.0
20260904121503 17 282 14.5 24.1 0.00 0.66 0.51 69 1014.8
20260904121004 17 282 17.7 29.0 0.00 0.66 0.51 68 1014.7
20260904120504 17 290 16.1 32.2 0.00 0.66 0.51 68 1014.6
20260904115503 17 289 22.5 37.0 0.00 0.66 0.51 68 1014.4
20260904114503 18 276 19.3 32.2 0.00 0.66 0.51 71 1014.3
20260904114004 18 268 19.3 32.2 0.00 0.66 0.51 70 1014.2
20260904113503 18 268 16.1 24.1 0.00 0.66 0.51 70 1014.2
20260904113003 18 279 11.3 24.1 0.00 0.66 0.51 71 1014.2
20260904112503 18 299 17.7 24.1 0.00 0.66 0.51 70 1014.1
20260904112004 18 274 17.7 27.4 0.00 0.66 0.51 69 1013.9
20260904111004 18 292 19.3 32.2 0.00 0.66 0.51 69 1013.8
20260904110504 18 297 19.3 32.2 0.00 0.66 0.51 69 1013.9
20260904110003 18 280 19.3 32.2 0.00 0.66 0.51 68 1014.0
20260904105004 18 288 20.9 35.4 0.00 0.66 0.51 69 1013.7
20260904104504 18 279 22.5 32.2 0.00 0.66 0.51 72 1013.7
20260904103504 18 268 17.7 22.5 0.00 0.66 0.51 76 1013.4
20260904103003 18 271 11.3 22.5 0.00 0.66 0.51 76 1013.2
20260904102504 18 259 14.5 22.5 0.00 0.66 0.51 77 1013.4
20260904102004 17 273 16.1 24.1 0.00 0.66 0.51 77 1013.3
20260904101504 17 287 16.1 27.4 0.00 0.66 0.51 77 1013.3
20260904101004 17 287 16.1 25.7 0.00 0.66 0.51 79 1013.3
20260904100004 17 268 14.5 22.5 0.00 0.66 0.51 82 1013.1
20260904095504 17 278 14.5 25.7 0.00 0.66 0.51 84 1013.1
20260904095003 17 277 14.5 22.5 0.00 0.66 0.51 85 1013.2
20260904094003 17 267 16.1 27.4 0.00 0.66 0.51 86 1013.1
20260904093503 17 273 14.5 25.7 0.00 0.66 0.51 87 1013.1
20260904092504 16 249 14.5 24.1 0.00 0.66 0.51 88 1013.0
20260904092003 16 262 11.3 20.9 0.00 0.66 0.51 89 1013.0
20260904091503 16 272 9.7 24.1 0.00 0.66 0.51 89 1013.0
20260904091004 16 285 14.5 20.9 0.00 0.66 0.51 89 1012.9
20260904090504 16 262 12.9 20.9 0.00 0.66 0.51 89 1012.8
20260904090004 16 263 14.5 22.5 0.00 0.66 0.51 89 1012.6
20260904085503 16 271 17.7 25.7 0.00 0.66 0.51 90 1012.5
20260904085004 16 245 16.1 22.5 0.00 0.66 0.51 91 1012.5
20260904084503 16 260 12.9 24.1 0.00 0.66 0.51 91 1012.3
20260904084003 16 261 16.1 25.7 0.00 0.66 0.51 91 1012.3
20260904083503 16 272 14.5 19.3 0.00 0.66 0.51 92 1012.3
20260904083003 16 264 12.9 20.9 0.00 0.66 0.51 92 1012.3
20260904082504 16 250 9.7 19.3 0.00 0.66 0.51 92 1012.1
20260904082004 16 263 14.5 22.5 0.00 0.66 0.51 92 1012.3
20260904081004 15 285 12.9 20.9 0.00 0.66 0.51 92 1012.4
20260904080003 15 244 12.9 22.5 0.00 0.66 0.51 93 1012.3
20260904075503 15 257 8.0 19.3 0.00 0.66 0.51 93 1012.2
20260904075004 15 250 9.7 14.5 0.03 0.66 0.51 93 1012.2
20260904074503 15 260 11.3 19.3 0.03 0.66 0.51 93 1012.1
20260904073504 15 255 12.9 22.5 0.05 0.66 0.51 93 1011.9
20260904073003 15 261 14.5 22.5 0.05 0.69 0.51 93 1011.9
20260904072504 15 262 11.3 22.5 0.05 0.69 0.51 93 1012.0
20260904071503 15 248 14.5 20.9 0.05 0.69 0.51 93 1011.6
20260904071003 15 231 11.3 22.5 0.05 0.69 0.51 93 1011.6
20260904070504 15 236 14.5 22.5 0.05 0.69 0.51 93 1011.5
20260904070004 15 254 9.7 20.9 0.08 0.69 0.51 92 1011.5
20260904065503 15 264 9.7 22.5 0.08 0.69 0.51 92 1011.5
20260904065004 15 243 11.3 24.1 0.05 0.66 0.48 92 1011.5
20260904064003 16 265 9.7 16.1 0.05 0.66 0.48 92 1011.3
20260904063503 16 267 11.3 24.1 0.05 0.64 0.46 92 1011.4
20260904063004 16 296 9.7 20.9 0.05 0.64 0.46 92 1011.4
20260904062503 16 267 19.3 32.2 0.05 0.64 0.46 93 1011.3
20260904062004 16 263 8.0 19.3 0.05 0.64 0.46 93 1011.2
20260904061503 16 256 9.7 19.3 0.05 0.64 0.46 93 1011.2
20260904061004 16 271 8.0 19.3 0.05 0.61 0.43 93 1011.1
20260904060503 16 261 14.5 20.9 0.05 0.61 0.43 93 1011.0
20260904055504 16 263 16.1 29.0 0.05 0.61 0.43 92 1010.8
20260904055003 16 251 14.5 25.7 0.05 0.61 0.43 93 1010.7
20260904054504 16 249 11.3 22.5 0.05 0.61 0.43 93 1010.6
20260904053503 16 274 4.8 12.9 0.05 0.61 0.43 93 1010.4
20260904053003 16 269 9.7 16.1 0.03 0.58 0.41 93 1010.5
20260904052503 16 267 9.7 19.3 0.03 0.58 0.41 93 1010.3
20260904051504 17 270 12.9 16.1 0.05 0.58 0.41 93 1010.1
20260904051003 17 257 9.7 19.3 0.08 0.58 0.41 92 1010.1
20260904050503 17 275 11.3 19.3 0.10 0.58 0.41 92 1010.0
20260904050004 17 256 12.9 19.3 0.10 0.58 0.41 92 1009.9
20260904045503 17 266 14.5 22.5 0.10 0.56 0.38 92 1009.9
20260904045004 17 264 11.3 19.3 0.10 0.56 0.38 92 1010.0
20260904044503 17 262 12.9 22.5 0.13 0.56 0.38 92 1009.7
20260904044004 17 262 17.7 29.0 0.15 0.56 0.38 92 1009.7
20260904043503 18 260 19.3 35.4 0.15 0.56 0.38 92 1009.5
20260904043003 18 276 20.9 41.8 0.15 0.56 0.38 92 1009.5
20260904042504 18 275 24.1 41.8 0.15 0.56 0.38 93 1009.2
20260904042004 18 221 25.7 41.8 0.13 0.51 0.33 93 1008.8
20260904041504 18 239 24.1 37.0 0.15 0.51 0.33 93 1008.9
20260904041004 18 239 24.1 41.8 0.13 0.51 0.33 93 1009.0
20260904040503 18 247 22.5 35.4 0.13 0.48 0.30 93 1008.9
20260904040004 18 252 20.9 45.1 0.13 0.48 0.30 93 1008.9
20260904035503 18 225 25.7 45.1 0.10 0.46 0.28 93 1009.0
20260904035004 18 234 22.5 41.8 0.13 0.46 0.28 93 1009.0
20260904034004 18 251 19.3 46.7 0.10 0.43 0.23 93 1009.1
20260904033003 18 235 22.5 45.1 0.10 0.41 0.23 93 1009.2
20260904032504 18 221 20.9 49.9 0.10 0.41 0.23 93 1009.2
20260904032004 18 240 25.7 46.7 0.13 0.41 0.23 93 1009.3
20260904031504 18 260 25.7 48.3 0.10 0.38 0.20 93 1009.3
20260904031003 18 226 24.1 48.3 0.10 0.38 0.20 93 1009.5
20260904030503 19 233 25.7 41.8 0.08 0.36 0.18 93 1009.7
20260904030004 19 230 25.7 38.6 0.08 0.36 0.18 93 1009.6
20260904025004 19 228 20.9 51.5 0.05 0.33 0.15 93 1009.6
20260904024504 19 230 29.0 51.5 0.05 0.33 0.15 93 1009.6
20260904024003 19 237 22.5 40.2 0.05 0.33 0.15 92 1009.7
20260904023504 19 250 19.3 32.2 0.05 0.33 0.15 93 1009.7
20260904023004 19 245 22.5 35.4 0.03 0.30 0.13 92 1009.8
20260904022503 19 231 20.9 49.9 0.03 0.30 0.13 92 1009.7
20260904022003 19 235 16.1 33.8 0.00 0.28 0.10 92 1009.8
20260904021504 19 234 22.5 41.8 0.00 0.28 0.10 92 1010.0
20260904021004 19 249 20.9 35.4 0.00 0.28 0.10 92 1010.1
20260904015503 19 225 22.5 33.8 0.00 0.28 0.10 92 1010.4
20260904013504 19 248 25.7 46.7 0.00 0.30 0.10 93 1010.7
20260904013004 19 226 20.9 40.2 0.00 0.30 0.10 93 1010.7
20260904012503 19 247 25.7 41.8 0.00 0.30 0.10 93 1010.8
20260904012004 19 241 16.1 40.2 0.00 0.30 0.10 93 1010.8
20260904011504 19 223 16.1 33.8 0.00 0.30 0.10 93 1010.8
20260904011003 19 242 22.5 41.8 0.00 0.30 0.10 93 1010.8
20260904010503 19 229 24.1 41.8 0.00 0.33 0.10 93 1010.9
20260904010004 19 261 20.9 32.2 0.00 0.33 0.10 93 1011.1
20260904005503 19 256 20.9 35.4 0.00 0.33 0.10 93 1011.1
20260904004503 19 256 11.3 35.4 0.03 0.38 0.10 93 1011.1
20260904003503 18 234 25.7 41.8 0.05 0.41 0.10 93 1011.2
20260904002503 18 220 16.1 29.0 0.05 0.41 0.10 93 1011.3
20260904001503 18 236 14.5 27.4 0.05 0.43 0.10 93 1011.4
20260904001004 18 228 19.3 32.2 0.05 0.46 0.10 93 1011.5
20260904000003 18 232 12.9 29.0 0.10 0.48 0.10 93 1011.5
20260903235004 18 209 12.9 32.2 0.10 0.48 0.08 93 1011.5
20260903234503 18 225 14.5 24.1 0.10 0.48 0.08 93 1011.6
20260903234004 18 209 16.1 29.0 0.10 0.48 0.08 93 1011.6
20260903233503 18 213 19.3 29.0 0.08 0.46 0.05 93 1011.6
20260903233003 18 227 19.3 32.2 0.08 0.46 0.05 93 1011.7